Saint Bonnet de Bellac- Haute Vienne - France
Donnes mto: vendredi, 22/06/2012
Date Horaire Temp. E. Hum. E. P.atmo. Pluie Vent Direction Direction Ensoleilleme Solaire P. de rose Temp au vent Rafales
22/06/2012 00:00 12,2 C 81 % 1019,2 hPa 0,0 mm 2,2 km/h (1 Bft) SO 225 0 min 0 W/m 9,0 C 12,2 C 2,9 km/h (1 Bft)
22/06/2012 00:10 12,1 C 81 % 1019,2 hPa 0,0 mm 3,6 km/h (1 Bft) S-SO 202 0 min 0 W/m 8,9 C 12,1 C 4,7 km/h (1 Bft)
22/06/2012 00:20 12,0 C 83 % 1019,1 hPa 0,0 mm 5,4 km/h (2 Bft) SO 225 0 min 0 W/m 9,2 C 12,0 C 5,4 km/h (2 Bft)
22/06/2012 00:30 12,1 C 83 % 1019,1 hPa 0,0 mm 4,7 km/h (1 Bft) SO 225 0 min 0 W/m 9,3 C 12,1 C 7,2 km/h (2 Bft)
22/06/2012 00:40 12,1 C 83 % 1019,3 hPa 0,0 mm 5,8 km/h (2 Bft) S-SO 202 0 min 0 W/m 9,3 C 12,1 C 9,0 km/h (2 Bft)
22/06/2012 00:50 12,1 C 83 % 1019,4 hPa 0,0 mm 5,8 km/h (2 Bft) SO 225 0 min 0 W/m 9,3 C 12,1 C 7,9 km/h (2 Bft)
22/06/2012 01:00 11,9 C 83 % 1019,5 hPa 0,0 mm 5,4 km/h (2 Bft) SO 225 0 min 0 W/m 9,1 C 11,9 C 8,6 km/h (2 Bft)
22/06/2012 01:10 11,9 C 84 % 1019,6 hPa 0,0 mm 5,8 km/h (2 Bft) SO 225 0 min 0 W/m 9,3 C 11,9 C 8,3 km/h (2 Bft)
22/06/2012 01:20 11,8 C 85 % 1019,6 hPa 0,0 mm 6,5 km/h (2 Bft) S-SO 202 0 min 0 W/m 9,4 C 11,8 C 10,1 km/h (2 Bft)
22/06/2012 01:30 11,8 C 85 % 1019,5 hPa 0,0 mm 7,6 km/h (2 Bft) S-SO 202 0 min 0 W/m 9,4 C 11,8 C 7,6 km/h (2 Bft)
22/06/2012 01:40 11,7 C 86 % 1019,5 hPa 0,0 mm 4,7 km/h (1 Bft) S-SO 202 0 min 0 W/m 9,4 C 11,7 C 7,2 km/h (2 Bft)
22/06/2012 01:50 11,6 C 86 % 1019,5 hPa 0,0 mm 8,3 km/h (2 Bft) O-SO 247 0 min 0 W/m 9,3 C 11,6 C 10,1 km/h (2 Bft)
22/06/2012 02:00 11,6 C 86 % 1019,5 hPa 0,0 mm 5,8 km/h (2 Bft) SO 225 0 min 0 W/m 9,3 C 11,6 C 11,2 km/h (2 Bft)
22/06/2012 02:10 11,5 C 86 % 1019,6 hPa 0,0 mm 8,6 km/h (2 Bft) S-SO 202 0 min 0 W/m 9,2 C 11,5 C 11,9 km/h (2 Bft)
22/06/2012 02:20 11,4 C 86 % 1019,6 hPa 0,0 mm 3,2 km/h (1 Bft) S-SO 202 0 min 0 W/m 9,1 C 11,4 C 4,3 km/h (1 Bft)
22/06/2012 02:30 11,4 C 87 % 1019,5 hPa 0,0 mm 5,0 km/h (1 Bft) SO 225 0 min 0 W/m 9,3 C 11,4 C 10,1 km/h (2 Bft)
22/06/2012 02:40 11,4 C 87 % 1019,5 hPa 0,0 mm 5,4 km/h (2 Bft) SO 225 0 min 0 W/m 9,3 C 11,4 C 8,3 km/h (2 Bft)
22/06/2012 02:50 11,4 C 88 % 1019,5 hPa 0,0 mm 6,1 km/h (2 Bft) S-SO 202 0 min 0 W/m 9,5 C 11,4 C 7,2 km/h (2 Bft)
22/06/2012 03:02 11,5 C 88 % 1019,4 hPa 0,0 mm 6,8 km/h (2 Bft) S-SO 202 0 min 0 W/m 9,6 C 11,5 C 10,1 km/h (2 Bft)
22/06/2012 03:10 11,5 C 87 % 1019,5 hPa 0,0 mm 5,8 km/h (2 Bft) O 270 0 min 0 W/m 9,4 C 11,5 C 8,3 km/h (2 Bft)
22/06/2012 03:20 11,4 C 87 % 1019,5 hPa 0,0 mm 5,4 km/h (2 Bft) S-SO 202 0 min 0 W/m 9,3 C 11,4 C 7,9 km/h (2 Bft)
22/06/2012 03:30 11,3 C 88 % 1019,5 hPa 0,0 mm 6,1 km/h (2 Bft) SO 225 0 min 0 W/m 9,4 C 11,3 C 10,4 km/h (2 Bft)
22/06/2012 03:40 11,3 C 88 % 1019,6 hPa 0,0 mm 7,6 km/h (2 Bft) S-SO 202 0 min 0 W/m 9,4 C 11,3 C 12,6 km/h (3 Bft)
22/06/2012 03:50 11,3 C 88 % 1019,6 hPa 0,0 mm 5,0 km/h (1 Bft) SO 225 0 min 0 W/m 9,4 C 11,3 C 7,9 km/h (2 Bft)
22/06/2012 04:00 11,2 C 89 % 1019,5 hPa 0,0 mm 3,2 km/h (1 Bft) S-SO 202 0 min 0 W/m 9,5 C 11,2 C 6,5 km/h (2 Bft)
22/06/2012 04:10 11,2 C 89 % 1019,6 hPa 0,0 mm 7,2 km/h (2 Bft) S-SO 202 0 min 0 W/m 9,5 C 11,2 C 14,4 km/h (3 Bft)
22/06/2012 04:20 11,2 C 89 % 1019,5 hPa 0,0 mm 5,4 km/h (2 Bft) S 180 0 min 0 W/m 9,5 C 11,2 C 9,7 km/h (2 Bft)
22/06/2012 04:30 11,3 C 89 % 1019,6 hPa 0,0 mm 3,2 km/h (1 Bft) O-SO 247 0 min 0 W/m 9,6 C 11,3 C 4,0 km/h (1 Bft)
22/06/2012 04:40 11,3 C 89 % 1019,7 hPa 0,0 mm 5,4 km/h (2 Bft) SO 225 0 min 0 W/m 9,6 C 11,3 C 8,3 km/h (2 Bft)
22/06/2012 04:50 11,2 C 89 % 1019,7 hPa 0,0 mm 2,5 km/h (1 Bft) SO 225 0 min 0 W/m 9,5 C 11,2 C 4,3 km/h (1 Bft)
22/06/2012 05:00 11,1 C 89 % 1019,8 hPa 0,0 mm 2,9 km/h (1 Bft) S-SO 202 0 min 0 W/m 9,4 C 11,1 C 6,5 km/h (2 Bft)
22/06/2012 05:10 11,0 C 89 % 1019,8 hPa 0,0 mm 5,4 km/h (2 Bft) S-SO 202 0 min 0 W/m 9,3 C 11,0 C 11,2 km/h (2 Bft)
22/06/2012 05:20 10,9 C 89 % 1019,8 hPa 0,0 mm 5,4 km/h (2 Bft) S-SO 202 0 min 0 W/m 9,2 C 10,9 C 10,1 km/h (2 Bft)
22/06/2012 05:30 10,9 C 89 % 1019,9 hPa 0,0 mm 5,4 km/h (2 Bft) S-SE 157 0 min 0 W/m 9,2 C 10,9 C 10,1 km/h (2 Bft)
22/06/2012 05:40 10,9 C 89 % 1019,8 hPa 0,0 mm 3,2 km/h (1 Bft) S-SO 202 0 min 0 W/m 9,2 C 10,9 C 4,3 km/h (1 Bft)
22/06/2012 05:50 10,9 C 89 % 1019,7 hPa 0,0 mm 5,4 km/h (2 Bft) S-SO 202 0 min 0 W/m 9,2 C 10,9 C 7,6 km/h (2 Bft)
22/06/2012 06:00 10,9 C 89 % 1019,8 hPa 0,0 mm 3,6 km/h (1 Bft) S-SO 202 0 min 0 W/m 9,2 C 10,9 C 6,8 km/h (2 Bft)
22/06/2012 06:10 10,9 C 89 % 1019,8 hPa 0,0 mm 3,6 km/h (1 Bft) S-SO 202 0 min 0 W/m 9,2 C 10,9 C 4,0 km/h (1 Bft)
22/06/2012 06:20 10,9 C 89 % 1019,8 hPa 0,0 mm 6,8 km/h (2 Bft) S-SO 202 0 min 0 W/m 9,2 C 10,9 C 6,8 km/h (2 Bft)
22/06/2012 06:30 10,9 C 89 % 1020,0 hPa 0,0 mm 5,0 km/h (1 Bft) SO 225 0 min 0 W/m 9,2 C 10,9 C 9,4 km/h (2 Bft)
22/06/2012 06:40 11,1 C 89 % 1020,0 hPa 0,0 mm 6,5 km/h (2 Bft) O-SO 247 0 min 0 W/m 9,4 C 11,1 C 9,7 km/h (2 Bft)
22/06/2012 06:50 11,2 C 89 % 1020,1 hPa 0,0 mm 8,3 km/h (2 Bft) S 180 0 min 0 W/m 9,5 C 11,2 C 14,0 km/h (3 Bft)
22/06/2012 07:00 11,3 C 88 % 1020,2 hPa 0,0 mm 6,1 km/h (2 Bft) S-SO 202 0 min 0 W/m 9,4 C 11,3 C 9,7 km/h (2 Bft)
22/06/2012 07:10 11,5 C 88 % 1020,2 hPa 0,0 mm 5,0 km/h (1 Bft) SO 225 0 min 0 W/m 9,6 C 11,5 C 5,0 km/h (1 Bft)
22/06/2012 07:20 11,9 C 87 % 1020,4 hPa 0,0 mm 6,8 km/h (2 Bft) S-SO 202 0 min 0 W/m 9,8 C 11,9 C 8,3 km/h (2 Bft)
22/06/2012 07:30 12,2 C 86 % 1020,4 hPa 0,0 mm 8,3 km/h (2 Bft) S-SO 202 0 min 0 W/m 9,9 C 12,2 C 9,0 km/h (2 Bft)
22/06/2012 07:40 12,3 C 86 % 1020,6 hPa 0,0 mm 7,9 km/h (2 Bft) S-SO 202 0 min 0 W/m 10,0 C 12,3 C 11,5 km/h (2 Bft)
22/06/2012 07:50 12,4 C 86 % 1020,7 hPa 0,0 mm 7,9 km/h (2 Bft) N 360 0 min 0 W/m 10,1 C 12,4 C 7,9 km/h (2 Bft)
22/06/2012 08:00 12,6 C 86 % 1020,6 hPa 0,0 mm 4,7 km/h (1 Bft) S 180 0 min 0 W/m 10,3 C 12,6 C 7,9 km/h (2 Bft)
22/06/2012 08:10 12,8 C 86 % 1020,7 hPa 0,0 mm 4,0 km/h (1 Bft) O-SO 247 0 min 0 W/m 10,5 C 12,8 C 4,0 km/h (1 Bft)
22/06/2012 08:20 13,3 C 85 % 1020,8 hPa 0,0 mm 7,9 km/h (2 Bft) SO 225 0 min 0 W/m 10,8 C 13,3 C 11,2 km/h (2 Bft)
22/06/2012 08:30 13,5 C 84 % 1021,0 hPa 0,0 mm 7,9 km/h (2 Bft) S-SO 202 0 min 0 W/m 10,8 C 13,5 C 7,9 km/h (2 Bft)
22/06/2012 08:40 13,7 C 84 % 1021,0 hPa 0,0 mm 12,6 km/h (3 Bft) S-SO 202 0 min 0 W/m 11,0 C 13,7 C 18,7 km/h (3 Bft)
22/06/2012 08:50 13,8 C 83 % 1021,2 hPa 0,0 mm 9,0 km/h (2 Bft) SO 225 0 min 0 W/m 11,0 C 13,8 C 9,7 km/h (2 Bft)
22/06/2012 09:00 13,9 C 83 % 1021,3 hPa 0,0 mm 4,0 km/h (1 Bft) O-SO 247 0 min 0 W/m 11,1 C 13,9 C 4,0 km/h (1 Bft)
22/06/2012 09:10 14,3 C 83 % 1021,5 hPa 0,0 mm 4,7 km/h (1 Bft) SO 225 0 min 0 W/m 11,5 C 14,3 C 7,6 km/h (2 Bft)
22/06/2012 09:20 14,8 C 83 % 1021,5 hPa 0,0 mm 4,7 km/h (1 Bft) S-SO 202 0 min 0 W/m 11,9 C 14,8 C 8,3 km/h (2 Bft)
22/06/2012 09:30 15,4 C 80 % 1021,6 hPa 0,0 mm 7,9 km/h (2 Bft) S-SO 202 0 min 0 W/m 12,0 C 15,4 C 11,5 km/h (2 Bft)
22/06/2012 09:40 15,6 C 79 % 1021,6 hPa 0,0 mm 5,8 km/h (2 Bft) S-SO 202 0 min 0 W/m 12,0 C 15,6 C 7,9 km/h (2 Bft)
22/06/2012 09:50 15,6 C 78 % 1021,7 hPa 0,0 mm 8,6 km/h (2 Bft) SO 225 0 min 0 W/m 11,8 C 15,6 C 12,6 km/h (3 Bft)
22/06/2012 10:00 15,5 C 78 % 1021,7 hPa 0,0 mm 12,2 km/h (2 Bft) S-SO 202 0 min 0 W/m 11,7 C 15,5 C 20,5 km/h (4 Bft)
22/06/2012 10:10 15,5 C 78 % 1021,8 hPa 0,0 mm 3,2 km/h (1 Bft) SO 225 0 min 0 W/m 11,7 C 15,5 C 6,1 km/h (2 Bft)
22/06/2012 10:20 15,9 C 77 % 1021,7 hPa 0,0 mm 9,7 km/h (2 Bft) SO 225 0 min 0 W/m 11,9 C 15,9 C 10,1 km/h (2 Bft)
22/06/2012 10:30 16,2 C 76 % 1021,7 hPa 0,0 mm 9,0 km/h (2 Bft) SO 225 0 min 0 W/m 12,0 C 16,2 C 15,8 km/h (3 Bft)
22/06/2012 10:40 16,8 C 75 % 1021,7 hPa 0,0 mm 11,5 km/h (2 Bft) SO 225 0 min 0 W/m 12,3 C 16,8 C 17,3 km/h (3 Bft)
22/06/2012 10:50 16,9 C 73 % 1021,8 hPa 0,0 mm 7,9 km/h (2 Bft) S-SO 202 0 min 0 W/m 12,0 C 16,9 C 11,2 km/h (2 Bft)
22/06/2012 11:00 16,9 C 72 % 1021,9 hPa 0,0 mm 9,0 km/h (2 Bft) SO 225 0 min 0 W/m 11,8 C 16,9 C 13,7 km/h (3 Bft)
22/06/2012 11:10 16,9 C 74 % 1021,9 hPa 0,0 mm 4,0 km/h (1 Bft) S-SO 202 0 min 0 W/m 12,2 C 16,9 C 8,3 km/h (2 Bft)
22/06/2012 11:20 17,6 C 71 % 1022,0 hPa 0,0 mm 6,1 km/h (2 Bft) S-SO 202 0 min 0 W/m 12,3 C 17,6 C 6,1 km/h (2 Bft)
22/06/2012 11:30 17,9 C 68 % 1022,1 hPa 0,0 mm 6,5 km/h (2 Bft) SO 225 0 min 0 W/m 11,9 C 17,9 C 12,2 km/h (2 Bft)
22/06/2012 11:40 18,0 C 69 % 1022,1 hPa 0,0 mm 6,5 km/h (2 Bft) N 360 0 min 0 W/m 12,2 C 18,0 C 6,5 km/h (2 Bft)
22/06/2012 11:50 18,5 C 67 % 1022,1 hPa 0,0 mm 6,1 km/h (2 Bft) SO 225 0 min 0 W/m 12,3 C 18,5 C 8,6 km/h (2 Bft)
22/06/2012 12:00 18,4 C 66 % 1022,2 hPa 0,0 mm 5,4 km/h (2 Bft) S-SO 202 0 min 0 W/m 11,9 C 18,4 C 7,9 km/h (2 Bft)
22/06/2012 12:10 18,4 C 65 % 1022,1 hPa 0,0 mm 3,6 km/h (1 Bft) S-SO 202 0 min 0 W/m 11,7 C 18,4 C 4,0 km/h (1 Bft)
22/06/2012 12:20 18,3 C 65 % 1022,2 hPa 0,0 mm 2,9 km/h (1 Bft) O-SO 247 0 min 0 W/m 11,6 C 18,3 C 8,6 km/h (2 Bft)
22/06/2012 12:30 18,3 C 65 % 1022,3 hPa 0,0 mm 9,7 km/h (2 Bft) O-SO 247 0 min 0 W/m 11,6 C 18,3 C 18,4 km/h (3 Bft)
22/06/2012 12:40 18,4 C 66 % 1022,2 hPa 0,0 mm 6,5 km/h (2 Bft) SO 225 0 min 0 W/m 11,9 C 18,4 C 9,0 km/h (2 Bft)
22/06/2012 12:50 18,5 C 65 % 1022,2 hPa 0,0 mm 9,4 km/h (2 Bft) SO 225 0 min 0 W/m 11,8 C 18,5 C 18,4 km/h (3 Bft)
22/06/2012 13:00 18,3 C 66 % 1022,3 hPa 0,0 mm 10,8 km/h (2 Bft) S-SE 157 0 min 0 W/m 11,8 C 18,3 C 10,8 km/h (2 Bft)
22/06/2012 13:10 18,2 C 69 % 1022,4 hPa 0,0 mm 8,6 km/h (2 Bft) O-SO 247 0 min 0 W/m 12,4 C 18,2 C 13,0 km/h (3 Bft)
22/06/2012 13:20 18,2 C 67 % 1022,4 hPa 0,0 mm 15,1 km/h (3 Bft) S-SO 202 0 min 0 W/m 12,0 C 18,2 C 15,8 km/h (3 Bft)
22/06/2012 13:30 18,4 C 67 % 1022,3 hPa 0,0 mm 8,3 km/h (2 Bft) O-SO 247 0 min 0 W/m 12,2 C 18,4 C 11,9 km/h (2 Bft)
22/06/2012 13:40 18,6 C 66 % 1022,2 hPa 0,0 mm 5,8 km/h (2 Bft) S-SE 157 0 min 0 W/m 12,1 C 18,6 C 7,6 km/h (2 Bft)
22/06/2012 13:50 19,1 C 65 % 1022,3 hPa 0,0 mm 6,5 km/h (2 Bft) SO 225 0 min 0 W/m 12,4 C 19,1 C 12,2 km/h (2 Bft)
22/06/2012 14:00 19,3 C 62 % 1022,2 hPa 0,0 mm 4,3 km/h (1 Bft) SO 225 0 min 0 W/m 11,8 C 19,3 C 7,9 km/h (2 Bft)
22/06/2012 14:10 19,3 C 63 % 1022,2 hPa 0,0 mm 7,9 km/h (2 Bft) S-SO 202 0 min 0 W/m 12,1 C 19,3 C 8,3 km/h (2 Bft)
22/06/2012 14:20 19,3 C 64 % 1022,2 hPa 0,0 mm 2,5 km/h (1 Bft) O-SO 247 0 min 0 W/m 12,3 C 19,3 C 4,7 km/h (1 Bft)
22/06/2012 14:30 19,2 C 62 % 1022,3 hPa 0,0 mm 4,0 km/h (1 Bft) O 270 0 min 0 W/m 11,7 C 19,2 C 14,4 km/h (3 Bft)
22/06/2012 14:40 19,1 C 64 % 1022,2 hPa 0,0 mm 4,0 km/h (1 Bft) O-SO 247 0 min 0 W/m 12,1 C 19,1 C 7,2 km/h (2 Bft)
22/06/2012 14:50 19,5 C 65 % 1022,1 hPa 0,0 mm 2,2 km/h (1 Bft) S-SE 157 0 min 0 W/m 12,7 C 19,5 C 8,6 km/h (2 Bft)
22/06/2012 15:00 19,8 C 63 % 1022,1 hPa 0,0 mm 2,5 km/h (1 Bft) O 270 0 min 0 W/m 12,5 C 19,8 C 2,5 km/h (1 Bft)
22/06/2012 15:10 19,8 C 62 % 1022,1 hPa 0,0 mm 0,0 km/h (0 Bft) O-SO 247 0 min 0 W/m 12,3 C 19,8 C 6,5 km/h (2 Bft)
22/06/2012 15:20 20,1 C 63 % 1022,0 hPa 0,0 mm 3,2 km/h (1 Bft) O-SO 247 0 min 0 W/m 12,8 C 20,1 C 8,3 km/h (2 Bft)
22/06/2012 15:30 20,2 C 62 % 1022,1 hPa 0,0 mm 1,4 km/h (1 Bft) S-SO 202 0 min 0 W/m 12,7 C 20,2 C 7,2 km/h (2 Bft)
22/06/2012 15:40 20,2 C 61 % 1022,1 hPa 0,0 mm 4,0 km/h (1 Bft) O 270 0 min 0 W/m 12,4 C 20,2 C 8,3 km/h (2 Bft)
22/06/2012 15:50 20,3 C 61 % 1022,1 hPa 0,0 mm 5,4 km/h (2 Bft) O-SO 247 0 min 0 W/m 12,5 C 20,3 C 15,1 km/h (3 Bft)
22/06/2012 16:00 20,4 C 61 % 1022,0 hPa 0,0 mm 5,4 km/h (2 Bft) S 180 0 min 0 W/m 12,6 C 20,4 C 5,4 km/h (2 Bft)
22/06/2012 16:10 20,5 C 61 % 1021,9 hPa 0,0 mm 4,0 km/h (1 Bft) O 270 0 min 0 W/m 12,7 C 20,5 C 6,1 km/h (2 Bft)
22/06/2012 16:20 20,8 C 60 % 1022,0 hPa 0,0 mm 0,7 km/h (0 Bft) O-SO 247 0 min 0 W/m 12,7 C 20,8 C 0,7 km/h (0 Bft)
22/06/2012 16:30 20,6 C 59 % 1021,9 hPa 0,0 mm 6,1 km/h (2 Bft) S-SO 202 0 min 0 W/m 12,3 C 20,6 C 14,4 km/h (3 Bft)
22/06/2012 16:40 20,4 C 56 % 1021,8 hPa 0,0 mm 7,6 km/h (2 Bft) SO 225 0 min 0 W/m 11,3 C 20,4 C 12,6 km/h (3 Bft)
22/06/2012 16:50 20,8 C 56 % 1021,9 hPa 0,0 mm 7,2 km/h (2 Bft) S-SO 202 0 min 0 W/m 11,7 C 20,8 C 12,2 km/h (2 Bft)
22/06/2012 17:00 21,1 C 55 % 1021,8 hPa 0,0 mm 4,0 km/h (1 Bft) SO 225 0 min 0 W/m 11,7 C 21,1 C 7,9 km/h (2 Bft)
22/06/2012 17:10 20,9 C 54 % 1021,9 hPa 0,0 mm 4,0 km/h (1 Bft) SO 225 0 min 0 W/m 11,2 C 20,9 C 10,1 km/h (2 Bft)
22/06/2012 17:20 20,8 C 55 % 1021,8 hPa 0,0 mm 2,2 km/h (1 Bft) O 270 0 min 0 W/m 11,4 C 20,8 C 2,2 km/h (1 Bft)
22/06/2012 17:30 20,8 C 56 % 1021,9 hPa 0,0 mm 1,8 km/h (1 Bft) O-SO 247 0 min 0 W/m 11,7 C 20,8 C 6,5 km/h (2 Bft)
22/06/2012 17:40 20,5 C 56 % 1021,9 hPa 0,0 mm 1,8 km/h (1 Bft) N 360 0 min 0 W/m 11,4 C 20,5 C 1,8 km/h (1 Bft)
22/06/2012 17:50 20,5 C 57 % 1021,9 hPa 0,0 mm 2,9 km/h (1 Bft) S 180 0 min 0 W/m 11,7 C 20,5 C 7,6 km/h (2 Bft)
22/06/2012 18:00 20,9 C 51 % 1021,9 hPa 0,0 mm 13,0 km/h (3 Bft) S 180 0 min 0 W/m 10,4 C 20,9 C 13,0 km/h (3 Bft)
22/06/2012 18:10 20,8 C 55 % 1022,0 hPa 0,0 mm 1,1 km/h (1 Bft) O-SO 247 0 min 0 W/m 11,4 C 20,8 C 3,6 km/h (1 Bft)
22/06/2012 18:20 20,9 C 54 % 1022,1 hPa 0,0 mm 4,3 km/h (1 Bft) O-SO 247 0 min 0 W/m 11,2 C 20,9 C 4,3 km/h (1 Bft)
22/06/2012 18:30 20,3 C 55 % 1021,9 hPa 0,0 mm 5,8 km/h (2 Bft) SO 225 0 min 0 W/m 11,0 C 20,3 C 10,1 km/h (2 Bft)
22/06/2012 18:40 20,3 C 56 % 1021,9 hPa 0,0 mm 2,5 km/h (1 Bft) O-SO 247 0 min 0 W/m 11,2 C 20,3 C 4,7 km/h (1 Bft)
22/06/2012 18:50 20,6 C 55 % 1021,9 hPa 0,0 mm 4,3 km/h (1 Bft) O-SO 247 0 min 0 W/m 11,2 C 20,6 C 6,8 km/h (2 Bft)
22/06/2012 19:00 20,9 C 53 % 1021,8 hPa 0,0 mm 4,3 km/h (1 Bft) SO 225 0 min 0 W/m 11,0 C 20,9 C 5,8 km/h (2 Bft)
22/06/2012 19:10 20,8 C 52 % 1021,9 hPa 0,0 mm 5,8 km/h (2 Bft) S-SO 202 0 min 0 W/m 10,6 C 20,8 C 7,9 km/h (2 Bft)
22/06/2012 19:20 20,6 C 54 % 1021,9 hPa 0,0 mm 1,8 km/h (1 Bft) O 270 0 min 0 W/m 11,0 C 20,6 C 4,3 km/h (1 Bft)
22/06/2012 19:30 20,2 C 54 % 1022,1 hPa 0,0 mm 1,1 km/h (1 Bft) O-SO 247 0 min 0 W/m 10,6 C 20,2 C 3,6 km/h (1 Bft)
22/06/2012 19:40 19,9 C 55 % 1022,0 hPa 0,0 mm 2,5 km/h (1 Bft) SO 225 0 min 0 W/m 10,6 C 19,9 C 3,6 km/h (1 Bft)
22/06/2012 19:50 19,7 C 55 % 1022,0 hPa 0,0 mm 5,8 km/h (2 Bft) NO 315 0 min 0 W/m 10,4 C 19,7 C 13,0 km/h (3 Bft)
22/06/2012 20:00 19,4 C 56 % 1022,2 hPa 0,0 mm 1,1 km/h (1 Bft) O 270 0 min 0 W/m 10,4 C 19,4 C 4,3 km/h (1 Bft)
22/06/2012 20:10 19,1 C 57 % 1022,2 hPa 0,0 mm 2,2 km/h (1 Bft) S-SO 202 0 min 0 W/m 10,4 C 19,1 C 4,0 km/h (1 Bft)
22/06/2012 20:20 18,8 C 59 % 1022,3 hPa 0,0 mm 0,7 km/h (0 Bft) O-SO 247 0 min 0 W/m 10,6 C 18,8 C 3,2 km/h (1 Bft)
22/06/2012 20:30 18,5 C 60 % 1022,4 hPa 0,0 mm 0,4 km/h (0 Bft) O-SO 247 0 min 0 W/m 10,6 C 18,5 C 3,2 km/h (1 Bft)
22/06/2012 20:40 18,3 C 61 % 1022,5 hPa 0,0 mm 0,0 km/h (0 Bft) O-SO 247 0 min 0 W/m 10,6 C 18,3 C 2,9 km/h (1 Bft)
22/06/2012 20:50 18,1 C 62 % 1022,5 hPa 0,0 mm 0,0 km/h (0 Bft) O-SO 247 0 min 0 W/m 10,7 C 18,1 C 0,0 km/h (0 Bft)
22/06/2012 21:00 17,8 C 63 % 1022,5 hPa 0,0 mm 0,0 km/h (0 Bft) O 270 0 min 0 W/m 10,7 C 17,8 C 3,2 km/h (1 Bft)
22/06/2012 21:10 17,6 C 63 % 1022,6 hPa 0,0 mm 0,4 km/h (0 Bft) O-NO 292 0 min 0 W/m 10,5 C 17,6 C 3,6 km/h (1 Bft)
22/06/2012 21:20 17,3 C 64 % 1022,7 hPa 0,0 mm 0,0 km/h (0 Bft) O-SO 247 0 min 0 W/m 10,4 C 17,3 C 0,0 km/h (0 Bft)
22/06/2012 21:30 16,9 C 65 % 1022,8 hPa 0,0 mm 0,7 km/h (0 Bft) S-SE 157 0 min 0 W/m 10,3 C 16,9 C 4,0 km/h (1 Bft)
22/06/2012 21:40 16,6 C 65 % 1022,8 hPa 0,0 mm 0,4 km/h (0 Bft) O 270 0 min 0 W/m 10,0 C 16,6 C 0,4 km/h (0 Bft)
22/06/2012 21:50 16,3 C 65 % 1022,9 hPa 0,0 mm 0,0 km/h (0 Bft) O 270 0 min 0 W/m 9,7 C 16,3 C 3,2 km/h (1 Bft)
22/06/2012 22:00 15,8 C 66 % 1023,1 hPa 0,0 mm 0,4 km/h (0 Bft) SO 225 0 min 0 W/m 9,5 C 15,8 C 0,4 km/h (0 Bft)
22/06/2012 22:10 15,5 C 67 % 1023,1 hPa 0,0 mm 0,0 km/h (0 Bft) O 270 0 min 0 W/m 9,4 C 15,5 C 0,0 km/h (0 Bft)
22/06/2012 22:20 15,1 C 68 % 1023,2 hPa 0,0 mm 0,0 km/h (0 Bft) SO 225 0 min 0 W/m 9,2 C 15,1 C 0,0 km/h (0 Bft)
22/06/2012 22:30 14,8 C 69 % 1023,5 hPa 0,0 mm 0,0 km/h (0 Bft) SO 225 0 min 0 W/m 9,2 C 14,8 C 0,0 km/h (0 Bft)
22/06/2012 22:40 14,3 C 70 % 1023,6 hPa 0,0 mm 0,0 km/h (0 Bft) SO 225 0 min 0 W/m 8,9 C 14,3 C 0,0 km/h (0 Bft)
22/06/2012 22:50 13,9 C 70 % 1023,7 hPa 0,0 mm 0,0 km/h (0 Bft) O 270 0 min 0 W/m 8,5 C 13,9 C 0,0 km/h (0 Bft)
22/06/2012 23:00 13,6 C 71 % 1023,8 hPa 0,0 mm 0,0 km/h (0 Bft) O-SO 247 0 min 0 W/m 8,4 C 13,6 C 0,0 km/h (0 Bft)
22/06/2012 23:10 13,3 C 73 % 1023,9 hPa 0,0 mm 0,0 km/h (0 Bft) O 270 0 min 0 W/m 8,6 C 13,3 C 0,0 km/h (0 Bft)
22/06/2012 23:20 13,1 C 73 % 1023,8 hPa 0,0 mm 0,0 km/h (0 Bft) O-SO 247 0 min 0 W/m 8,4 C 13,1 C 0,0 km/h (0 Bft)
22/06/2012 23:30 12,9 C 75 % 1023,9 hPa 0,0 mm 0,0 km/h (0 Bft) O-SO 247 0 min 0 W/m 8,6 C 12,9 C 0,0 km/h (0 Bft)
22/06/2012 23:40 12,8 C 76 % 1023,8 hPa 0,0 mm 0,0 km/h (0 Bft) SO 225 0 min 0 W/m 8,7 C 12,8 C 0,0 km/h (0 Bft)
22/06/2012 23:50 12,6 C 76 % 1023,9 hPa 0,0 mm 0,0 km/h (0 Bft) SO 225 0 min 0 W/m 8,5 C 12,6 C 0,0 km/h (0 Bft)
_ Min-Heure 06:30 18:00 00:30 - 23:50 - - - - 23:20 06:30 23:50
Minimum _ 10,9 C 51 % 1019,1 hPa - 0,0 km/h (0 Bft) - - - - 8,4 C 10,9 C 0,0 km/h (0 Bft)
_ Max-Heure 17:00 06:50 23:50 23:50 13:20 - - 23:50 23:50 15:20 17:00 10:00
Maximum _ 21,1 C 89 % 1023,9 hPa 0,0 mm 15,1 km/h
S-SO (3 Bft)
- - 0 min 0 W/m 12,8 C 21,1 C 20,5 km/h
S-SO (4 Bft)
Moyenne _ 15,7 C 73 % 1021,4 hPa #0,0 mm 4,7 km/h (1 Bft) S-SO - #0 min. 0 W/m 10,6 C 15,7 C 7,6 km/h (2 Bft)
Saint Bonnet de Bellac- Haute Vienne - France